Time,TemperatureF,DewpointF,PressureIn,WindDirection,WindDirectionDegrees,WindSpeedMPH,WindSpeedGustMPH,Humidity,HourlyPrecipIn,Conditions,Clouds,dailyrainin,SoftwareType,DateUTC
2013-04-16 00:00:00,63.5,61.1,30.14,SE,126,0.0,0.0,92,0.00,,,0.00,Wunderground v.1.15,2013-04-16 04:00:00,
2013-04-16 00:05:00,63.3,61.2,30.13,SE,126,0.0,0.0,93,0.00,,,0.00,Wunderground v.1.15,2013-04-16 04:05:00,
2013-04-16 00:10:00,63.3,61.2,30.13,SE,126,0.0,0.0,93,0.00,,,0.00,Wunderground v.1.15,2013-04-16 04:10:00,
2013-04-16 00:20:00,63.2,61.1,30.13,East,96,1.0,1.0,93,0.00,,,0.00,Wunderground v.1.15,2013-04-16 04:20:00,
2013-04-16 00:25:00,63.4,61.0,30.13,East,84,1.0,1.0,92,0.00,,,0.00,Wunderground v.1.15,2013-04-16 04:25:00,
2013-04-16 00:35:00,63.5,60.8,30.14,ENE,63,1.0,2.0,91,0.00,,,0.00,Wunderground v.1.15,2013-04-16 04:35:00,
2013-04-16 00:45:00,63.4,60.7,30.14,ENE,74,2.0,2.0,91,0.00,,,0.00,Wunderground v.1.15,2013-04-16 04:45:00,
2013-04-16 00:50:00,63.4,60.7,30.14,ENE,61,2.0,2.0,91,0.00,,,0.00,Wunderground v.1.15,2013-04-16 04:50:00,
2013-04-16 01:00:00,63.1,60.4,30.15,ENE,67,3.0,3.0,91,0.00,,,0.00,Wunderground v.1.15,2013-04-16 05:00:00,
2013-04-16 01:05:00,63.1,60.4,30.15,ENE,73,2.0,3.0,91,0.00,,,0.00,Wunderground v.1.15,2013-04-16 05:05:00,
2013-04-16 01:15:00,63.0,60.0,30.15,East,80,1.0,3.0,90,0.00,,,0.00,Wunderground v.1.15,2013-04-16 05:15:00,
2013-04-16 01:25:00,62.9,59.9,30.15,East,80,1.0,1.0,90,0.00,,,0.00,Wunderground v.1.15,2013-04-16 05:25:00,
2013-04-16 01:30:00,62.7,60.0,30.15,East,80,0.0,0.0,91,0.00,,,0.00,Wunderground v.1.15,2013-04-16 05:30:00,
2013-04-16 01:40:00,62.2,59.5,30.15,East,80,0.0,0.0,91,0.00,,,0.00,Wunderground v.1.15,2013-04-16 05:40:00,
2013-04-16 01:45:00,62.0,59.6,30.15,East,80,0.0,0.0,92,0.00,,,0.00,Wunderground v.1.15,2013-04-16 05:45:00,
2013-04-16 01:55:00,61.8,59.5,30.15,East,80,0.0,0.0,92,0.00,,,0.00,Wunderground v.1.15,2013-04-16 05:55:00,
2013-04-16 02:05:00,61.7,59.4,30.14,East,80,0.0,0.0,92,0.00,,,0.00,Wunderground v.1.15,2013-04-16 06:05:00,
2013-04-16 02:10:00,61.6,59.6,30.15,East,80,0.0,0.0,93,0.00,,,0.00,Wunderground v.1.15,2013-04-16 06:10:00,
2013-04-16 02:20:00,61.1,59.1,30.15,East,80,0.0,0.0,93,0.00,,,0.00,Wunderground v.1.15,2013-04-16 06:20:00,
2013-04-16 02:30:00,60.9,58.9,30.14,East,80,0.0,0.0,93,0.00,,,0.00,Wunderground v.1.15,2013-04-16 06:30:00,
2013-04-16 02:35:00,60.5,58.5,30.15,East,80,0.0,0.0,93,0.00,,,0.00,Wunderground v.1.15,2013-04-16 06:35:00,
2013-04-16 02:45:00,60.5,58.8,30.15,East,80,0.0,0.0,94,0.00,,,0.00,Wunderground v.1.15,2013-04-16 06:45:00,
2013-04-16 02:50:00,60.4,58.7,30.15,East,80,0.0,0.0,94,0.00,,,0.00,Wunderground v.1.15,2013-04-16 06:50:00,
2013-04-16 03:00:00,60.2,58.5,30.14,East,80,0.0,0.0,94,0.00,,,0.00,Wunderground v.1.15,2013-04-16 07:00:00,
2013-04-16 03:05:00,60.2,58.5,30.14,East,80,0.0,0.0,94,0.00,,,0.00,Wunderground v.1.15,2013-04-16 07:05:00,
2013-04-16 03:15:00,60.0,58.3,30.14,East,80,0.0,0.0,94,0.00,,,0.00,Wunderground v.1.15,2013-04-16 07:15:00,
2013-04-16 03:20:00,60.0,58.3,30.15,East,80,0.0,0.0,94,0.00,,,0.00,Wunderground v.1.15,2013-04-16 07:20:00,
2013-04-16 03:30:00,59.8,58.1,30.15,East,80,0.0,0.0,94,0.00,,,0.00,Wunderground v.1.15,2013-04-16 07:30:00,
2013-04-16 03:40:00,59.7,58.3,30.14,East,80,0.0,0.0,95,0.00,,,0.00,Wunderground v.1.15,2013-04-16 07:40:00,
2013-04-16 03:45:00,59.6,58.2,30.15,East,80,0.0,0.0,95,0.00,,,0.00,Wunderground v.1.15,2013-04-16 07:45:00,
2013-04-16 03:55:00,59.5,58.1,30.15,East,80,0.0,0.0,95,0.00,,,0.00,Wunderground v.1.15,2013-04-16 07:55:00,
2013-04-16 04:00:00,59.5,58.1,30.15,East,80,0.0,0.0,95,0.00,,,0.00,Wunderground v.1.15,2013-04-16 08:00:00,
2013-04-16 04:10:00,59.4,58.0,30.15,East,80,0.0,0.0,95,0.00,,,0.00,Wunderground v.1.15,2013-04-16 08:10:00,
2013-04-16 04:20:00,59.3,57.9,30.15,East,80,0.0,0.0,95,0.00,,,0.00,Wunderground v.1.15,2013-04-16 08:20:00,
2013-04-16 04:25:00,59.3,57.9,30.15,East,80,0.0,0.0,95,0.00,,,0.00,Wunderground v.1.15,2013-04-16 08:25:00,
2013-04-16 04:35:00,59.1,57.7,30.15,East,80,0.0,0.0,95,0.00,,,0.00,Wunderground v.1.15,2013-04-16 08:35:00,
2013-04-16 04:45:00,59.1,57.7,30.15,East,80,0.0,0.0,95,0.00,,,0.00,Wunderground v.1.15,2013-04-16 08:45:00,
2013-04-16 04:50:00,59.1,57.7,30.15,East,80,0.0,0.0,95,0.00,,,0.00,Wunderground v.1.15,2013-04-16 08:50:00,
2013-04-16 05:00:00,59.0,57.6,30.15,NE,48,0.0,2.0,95,0.00,,,0.00,Wunderground v.1.15,2013-04-16 09:00:00,
2013-04-16 05:05:00,59.0,57.6,30.15,NE,48,0.0,2.0,95,0.00,,,0.00,Wunderground v.1.15,2013-04-16 09:05:00,
2013-04-16 05:15:00,58.8,57.4,30.15,NE,48,0.0,0.0,95,0.00,,,0.00,Wunderground v.1.15,2013-04-16 09:15:00,
2013-04-16 05:20:00,58.8,57.4,30.15,NE,48,0.0,0.0,95,0.00,,,0.00,Wunderground v.1.15,2013-04-16 09:20:00,
2013-04-16 05:30:00,58.8,57.4,30.16,NE,48,0.0,0.0,95,0.00,,,0.00,Wunderground v.1.15,2013-04-16 09:30:00,
2013-04-16 05:40:00,58.7,57.3,30.16,NE,48,0.0,0.0,95,0.00,,,0.00,Wunderground v.1.15,2013-04-16 09:40:00,
2013-04-16 05:45:00,58.7,57.3,30.16,NE,48,0.0,0.0,95,0.00,,,0.00,Wunderground v.1.15,2013-04-16 09:45:00,
2013-04-16 05:55:00,58.6,57.2,30.16,NE,48,0.0,0.0,95,0.00,,,0.00,Wunderground v.1.15,2013-04-16 09:55:00,
2013-04-16 06:00:00,58.6,57.2,30.16,NE,48,0.0,0.0,95,0.00,,,0.00,Wunderground v.1.15,2013-04-16 10:00:00,
2013-04-16 06:10:00,58.4,57.0,30.17,NE,48,0.0,0.0,95,0.00,,,0.00,Wunderground v.1.15,2013-04-16 10:10:00,
2013-04-16 06:15:00,58.4,57.3,30.17,NE,48,0.0,1.0,96,0.00,,,0.00,Wunderground v.1.15,2013-04-16 10:15:00,
2013-04-16 06:25:00,58.2,56.8,30.17,NE,48,0.0,1.0,95,0.00,,,0.00,Wunderground v.1.15,2013-04-16 10:25:00,
2013-04-16 06:30:00,58.2,56.8,30.17,NE,48,0.0,0.0,95,0.00,,,0.00,Wunderground v.1.15,2013-04-16 10:30:00,
2013-04-16 06:40:00,58.1,57.0,30.17,NE,48,0.0,0.0,96,0.00,,,0.00,Wunderground v.1.15,2013-04-16 10:40:00,
2013-04-16 06:45:00,58.1,57.0,30.17,NE,48,0.0,0.0,96,0.00,,,0.00,Wunderground v.1.15,2013-04-16 10:45:00,
2013-04-16 06:55:00,58.0,56.9,30.18,NE,48,0.0,0.0,96,0.00,,,0.00,Wunderground v.1.15,2013-04-16 10:55:00,
2013-04-16 07:05:00,58.1,57.0,30.18,NE,48,0.0,0.0,96,0.00,,,0.00,Wunderground v.1.15,2013-04-16 11:05:00,
2013-04-16 07:10:00,58.1,57.0,30.18,NE,48,0.0,0.0,96,0.00,,,0.00,Wunderground v.1.15,2013-04-16 11:10:00,
2013-04-16 07:20:00,58.4,57.3,30.18,NE,48,0.0,0.0,96,0.00,,,0.00,Wunderground v.1.15,2013-04-16 11:20:00,
2013-04-16 07:30:00,58.6,57.5,30.19,NE,36,0.0,0.0,96,0.00,,,0.00,Wunderground v.1.15,2013-04-16 11:30:00,
2013-04-16 07:35:00,58.7,57.6,30.19,North,5,0.0,0.0,96,0.00,,,0.00,Wunderground v.1.15,2013-04-16 11:35:00,
2013-04-16 07:45:00,59.2,58.1,30.19,NNE,13,0.0,0.0,96,0.00,,,0.00,Wunderground v.1.15,2013-04-16 11:45:00,
2013-04-16 07:55:00,59.8,58.7,30.20,NE,49,1.0,2.0,96,0.00,,,0.00,Wunderground v.1.15,2013-04-16 11:55:00,
2013-04-16 08:00:00,60.2,59.1,30.20,NE,55,0.0,2.0,96,0.00,,,0.00,Wunderground v.1.15,2013-04-16 12:00:00,
2013-04-16 08:10:00,60.8,59.4,30.20,ENE,59,1.0,1.0,95,0.00,,,0.00,Wunderground v.1.15,2013-04-16 12:10:00,
2013-04-16 08:15:00,61.2,59.8,30.21,NE,56,1.0,1.0,95,0.00,,,0.00,Wunderground v.1.15,2013-04-16 12:15:00,
2013-04-16 08:25:00,61.7,60.0,30.21,East,81,2.0,2.0,94,0.00,,,0.00,Wunderground v.1.15,2013-04-16 12:25:00,
2013-04-16 08:30:00,62.3,60.2,30.21,ENE,63,2.0,4.0,93,0.00,,,0.00,Wunderground v.1.15,2013-04-16 12:30:00,
2013-04-16 08:40:00,62.9,60.2,30.20,East,82,3.0,5.0,91,0.00,,,0.00,Wunderground v.1.15,2013-04-16 12:40:00,
2013-04-16 08:50:00,63.8,60.5,30.21,ENE,71,3.0,3.0,89,0.00,,,0.00,Wunderground v.1.15,2013-04-16 12:50:00,
2013-04-16 09:00:00,64.9,60.9,30.21,East,96,3.0,6.0,87,0.00,,,0.00,Wunderground v.1.15,2013-04-16 13:00:00,
2013-04-16 09:05:00,65.5,61.5,30.21,ENE,68,4.0,6.0,87,0.00,,,0.00,Wunderground v.1.15,2013-04-16 13:05:00,
2013-04-16 09:15:00,66.4,61.8,30.21,East,95,4.0,5.0,85,0.00,,,0.00,Wunderground v.1.15,2013-04-16 13:15:00,
2013-04-16 09:20:00,66.7,61.7,30.21,East,96,4.0,6.0,84,0.00,,,0.00,Wunderground v.1.15,2013-04-16 13:20:00,
2013-04-16 09:30:00,67.5,61.8,30.21,ENE,67,5.0,5.0,82,0.00,,,0.00,Wunderground v.1.15,2013-04-16 13:30:00,
2013-04-16 09:35:00,67.9,62.2,30.21,ENE,76,4.0,5.0,82,0.00,,,0.00,Wunderground v.1.15,2013-04-16 13:35:00,
2013-04-16 09:45:00,69.0,62.9,30.21,NE,54,3.0,3.0,81,0.00,,,0.00,Wunderground v.1.15,2013-04-16 13:45:00,
2013-04-16 09:50:00,69.2,62.4,30.21,East,79,4.0,4.0,79,0.00,,,0.00,Wunderground v.1.15,2013-04-16 13:50:00,
2013-04-16 10:00:00,69.7,62.9,30.22,NE,53,4.0,4.0,79,0.00,,,0.00,Wunderground v.1.15,2013-04-16 14:00:00,
2013-04-16 10:05:00,70.3,62.7,30.22,ENE,66,4.0,5.0,77,0.00,,,0.00,Wunderground v.1.15,2013-04-16 14:05:00,
2013-04-16 10:15:00,70.5,62.6,30.22,NE,49,4.0,4.0,76,0.00,,,0.00,Wunderground v.1.15,2013-04-16 14:15:00,
2013-04-16 10:20:00,71.0,63.8,30.22,ENE,72,3.0,3.0,78,0.00,,,0.00,Wunderground v.1.15,2013-04-16 14:20:00,
2013-04-16 10:30:00,71.6,63.3,30.22,NE,34,3.0,3.0,75,0.00,,,0.00,Wunderground v.1.15,2013-04-16 14:30:00,
2013-04-16 10:40:00,71.5,62.4,30.22,NE,52,5.0,5.0,73,0.00,,,0.00,Wunderground v.1.15,2013-04-16 14:40:00,
2013-04-16 10:45:00,71.9,62.8,30.22,NNE,20,4.0,5.0,73,0.00,,,0.00,Wunderground v.1.15,2013-04-16 14:45:00,
2013-04-16 10:55:00,72.2,62.3,30.23,East,88,4.0,4.0,71,0.00,,,0.00,Wunderground v.1.15,2013-04-16 14:55:00,
2013-04-16 11:05:00,72.2,62.3,30.23,NE,50,4.0,6.0,71,0.00,,,0.00,Wunderground v.1.15,2013-04-16 15:05:00,
2013-04-16 11:15:00,73.2,63.6,30.23,East,98,3.0,4.0,72,0.00,,,0.00,Wunderground v.1.15,2013-04-16 15:15:00,
2013-04-16 11:20:00,73.3,62.1,30.22,ESE,114,3.0,3.0,68,0.00,,,0.00,Wunderground v.1.15,2013-04-16 15:20:00,
2013-04-16 11:30:00,73.9,62.7,30.22,ENE,70,4.0,8.0,68,0.00,,,0.00,Wunderground v.1.15,2013-04-16 15:30:00,
2013-04-16 11:35:00,73.7,61.2,30.22,ENE,59,3.0,8.0,65,0.00,,,0.00,Wunderground v.1.15,2013-04-16 15:35:00,
2013-04-16 11:45:00,74.7,62.6,30.22,East,88,4.0,6.0,66,0.00,,,0.00,Wunderground v.1.15,2013-04-16 15:45:00,
2013-04-16 11:50:00,74.6,61.6,30.22,ESE,115,4.0,4.0,64,0.00,,,0.00,Wunderground v.1.15,2013-04-16 15:50:00,
2013-04-16 12:00:00,75.2,62.2,30.22,East,85,5.0,6.0,64,0.00,,,0.00,Wunderground v.1.15,2013-04-16 16:00:00,
2013-04-16 12:05:00,75.3,61.8,30.22,ESE,118,5.0,6.0,63,0.00,,,0.00,Wunderground v.1.15,2013-04-16 16:05:00,
2013-04-16 12:15:00,74.4,61.4,30.22,SE,124,3.0,4.0,64,0.00,,,0.00,Wunderground v.1.15,2013-04-16 16:15:00,
2013-04-16 12:20:00,74.3,61.8,30.22,East,80,4.0,5.0,65,0.00,,,0.00,Wunderground v.1.15,2013-04-16 16:20:00,
2013-04-16 12:30:00,74.2,61.7,30.22,East,86,2.0,2.0,65,0.00,,,0.00,Wunderground v.1.15,2013-04-16 16:30:00,
2013-04-16 12:40:00,74.4,61.4,30.22,East,98,3.0,6.0,64,0.00,,,0.00,Wunderground v.1.15,2013-04-16 16:40:00,
2013-04-16 12:45:00,74.4,61.4,30.22,ESE,109,4.0,6.0,64,0.00,,,0.00,Wunderground v.1.15,2013-04-16 16:45:00,
2013-04-16 12:55:00,74.6,62.5,30.22,ESE,120,4.0,8.0,66,0.00,,,0.00,Wunderground v.1.15,2013-04-16 16:55:00,
2013-04-16 13:00:00,74.8,61.8,30.22,SE,130,4.0,4.0,64,0.00,,,0.00,Wunderground v.1.15,2013-04-16 17:00:00,
2013-04-16 13:10:00,74.4,63.1,30.22,East,84,2.0,5.0,68,0.00,,,0.00,Wunderground v.1.15,2013-04-16 17:10:00,
2013-04-16 13:20:00,74.2,62.5,30.21,NE,55,3.0,3.0,67,0.00,,,0.00,Wunderground v.1.15,2013-04-16 17:20:00,
2013-04-16 13:30:00,75.2,64.3,30.21,SSE,148,2.0,4.0,69,0.00,,,0.00,Wunderground v.1.15,2013-04-16 17:30:00,
2013-04-16 13:40:00,75.7,63.5,30.20,NE,38,4.0,4.0,66,0.00,,,0.00,Wunderground v.1.15,2013-04-16 17:40:00,
2013-04-16 13:45:00,77.3,64.6,30.20,East,93,4.0,7.0,65,0.00,,,0.00,Wunderground v.1.15,2013-04-16 17:45:00,
2013-04-16 13:55:00,75.5,63.8,30.20,ESE,109,6.0,7.0,67,0.00,,,0.00,Wunderground v.1.15,2013-04-16 17:55:00,
2013-04-16 14:05:00,75.0,63.3,30.20,ESE,123,4.0,5.0,67,0.00,,,0.00,Wunderground v.1.15,2013-04-16 18:05:00,
2013-04-16 14:15:00,74.6,63.8,30.20,SE,135,4.0,7.0,69,0.00,,,0.00,Wunderground v.1.15,2013-04-16 18:15:00,
2013-04-16 14:25:00,74.8,63.5,30.20,SSE,155,5.0,5.0,68,0.00,,,0.00,Wunderground v.1.15,2013-04-16 18:25:00,
2013-04-16 14:30:00,75.2,63.9,30.20,SSE,152,5.0,6.0,68,0.00,,,0.00,Wunderground v.1.15,2013-04-16 18:30:00,
2013-04-16 14:40:00,75.4,64.1,30.20,ESE,114,4.0,4.0,68,0.00,,,0.00,Wunderground v.1.15,2013-04-16 18:40:00,
2013-04-16 14:45:00,75.4,63.2,30.20,East,92,5.0,5.0,66,0.00,,,0.00,Wunderground v.1.15,2013-04-16 18:45:00,
2013-04-16 14:55:00,76.4,64.6,30.19,ESE,115,5.0,7.0,67,0.00,,,0.00,Wunderground v.1.15,2013-04-16 18:55:00,
2013-04-16 15:00:00,75.7,63.5,30.19,South,173,5.0,5.0,66,0.00,,,0.00,Wunderground v.1.15,2013-04-16 19:00:00,
2013-04-16 15:10:00,75.3,64.0,30.19,ESE,121,3.0,3.0,68,0.00,,,0.00,Wunderground v.1.15,2013-04-16 19:10:00,
2013-04-16 15:15:00,74.9,63.6,30.19,ESE,123,4.0,8.0,68,0.00,,,0.00,Wunderground v.1.15,2013-04-16 19:15:00,
2013-04-16 15:25:00,74.8,63.5,30.19,SE,129,6.0,6.0,68,0.00,,,0.00,Wunderground v.1.15,2013-04-16 19:25:00,
2013-04-16 15:30:00,74.9,63.6,30.19,ESE,112,6.0,6.0,68,0.00,,,0.00,Wunderground v.1.15,2013-04-16 19:30:00,
2013-04-16 15:40:00,74.7,64.3,30.18,SE,135,5.0,6.0,70,0.00,,,0.00,Wunderground v.1.15,2013-04-16 19:40:00,
2013-04-16 15:45:00,74.6,64.2,30.18,ESE,105,5.0,6.0,70,0.00,,,0.00,Wunderground v.1.15,2013-04-16 19:45:00,
2013-04-16 15:55:00,74.1,64.1,30.18,ESE,119,5.0,6.0,71,0.00,,,0.00,Wunderground v.1.15,2013-04-16 19:55:00,
2013-04-16 16:00:00,74.3,63.5,30.18,SE,136,5.0,7.0,69,0.00,,,0.00,Wunderground v.1.15,2013-04-16 20:00:00,
2013-04-16 16:10:00,74.2,63.8,30.17,SSE,149,5.0,5.0,70,0.00,,,0.00,Wunderground v.1.15,2013-04-16 20:10:00,
2013-04-16 16:20:00,75.0,64.5,30.17,SE,134,4.0,9.0,70,0.00,,,0.00,Wunderground v.1.15,2013-04-16 20:20:00,
2013-04-16 16:30:00,75.5,64.6,30.17,East,94,6.0,6.0,69,0.00,,,0.00,Wunderground v.1.15,2013-04-16 20:30:00,
2013-04-16 16:35:00,75.1,64.2,30.17,East,98,6.0,9.0,69,0.00,,,0.00,Wunderground v.1.15,2013-04-16 20:35:00,
2013-04-16 16:50:00,74.4,63.1,30.17,East,94,7.0,10.0,68,0.00,,,0.00,Wunderground v.1.15,2013-04-16 20:50:00,
2013-04-16 17:00:00,74.6,64.2,30.17,ESE,116,7.0,7.0,70,0.00,,,0.00,Wunderground v.1.15,2013-04-16 21:00:00,
2013-04-16 17:05:00,74.3,63.1,30.17,East,94,6.0,7.0,68,0.00,,,0.00,Wunderground v.1.15,2013-04-16 21:05:00,
2013-04-16 17:15:00,74.4,63.6,30.17,SE,139,5.0,6.0,69,0.00,,,0.00,Wunderground v.1.15,2013-04-16 21:15:00,
2013-04-16 17:20:00,74.0,63.6,30.18,SE,127,6.0,6.0,70,0.00,,,0.00,Wunderground v.1.15,2013-04-16 21:20:00,
2013-04-16 17:30:00,74.2,63.8,30.17,East,96,5.0,9.0,70,0.00,,,0.00,Wunderground v.1.15,2013-04-16 21:30:00,
2013-04-16 17:40:00,73.3,63.3,30.18,ESE,115,7.0,7.0,71,0.00,,,0.00,Wunderground v.1.15,2013-04-16 21:40:00,
2013-04-16 17:50:00,73.3,63.7,30.18,ESE,111,6.0,8.0,72,0.00,,,0.00,Wunderground v.1.15,2013-04-16 21:50:00,
2013-04-16 18:00:00,73.0,63.4,30.17,East,96,5.0,5.0,72,0.00,,,0.00,Wunderground v.1.15,2013-04-16 22:00:00,
2013-04-16 18:10:00,72.7,63.5,30.18,SE,139,4.0,8.0,73,0.00,,,0.00,Wunderground v.1.15,2013-04-16 22:10:00,
2013-04-16 18:15:00,72.4,63.3,30.18,SSE,165,6.0,8.0,73,0.00,,,0.00,Wunderground v.1.15,2013-04-16 22:15:00,
2013-04-16 18:25:00,71.9,63.5,30.17,SE,145,6.0,7.0,75,0.00,,,0.00,Wunderground v.1.15,2013-04-16 22:25:00,
2013-04-16 18:30:00,71.9,63.2,30.17,SE,134,6.0,9.0,74,0.00,,,0.00,Wunderground v.1.15,2013-04-16 22:30:00,
2013-04-16 18:40:00,71.9,63.5,30.17,SSE,153,6.0,6.0,75,0.00,,,0.00,Wunderground v.1.15,2013-04-16 22:40:00,
2013-04-16 18:45:00,71.9,63.2,30.17,South,169,6.0,6.0,74,0.00,,,0.00,Wunderground v.1.15,2013-04-16 22:45:00,
2013-04-16 18:55:00,71.4,62.7,30.17,SE,136,6.0,9.0,74,0.00,,,0.00,Wunderground v.1.15,2013-04-16 22:55:00,
2013-04-16 19:05:00,70.8,62.9,30.18,SE,131,6.0,6.0,76,0.00,,,0.00,Wunderground v.1.15,2013-04-16 23:05:00,
2013-04-16 19:15:00,70.3,63.1,30.18,SE,140,4.0,6.0,78,0.00,,,0.00,Wunderground v.1.15,2013-04-16 23:15:00,
2013-04-16 19:20:00,70.1,63.3,30.18,SE,144,4.0,4.0,79,0.00,,,0.00,Wunderground v.1.15,2013-04-16 23:20:00,
2013-04-16 19:30:00,69.6,63.5,30.18,ESE,117,4.0,4.0,81,0.00,,,0.00,Wunderground v.1.15,2013-04-16 23:30:00,
2013-04-16 19:40:00,69.1,63.4,30.18,ESE,121,3.0,3.0,82,0.00,,,0.00,Wunderground v.1.15,2013-04-16 23:40:00,
2013-04-16 19:45:00,68.9,63.2,30.18,ESE,115,3.0,3.0,82,0.00,,,0.00,Wunderground v.1.15,2013-04-16 23:45:00,
2013-04-16 19:55:00,68.5,63.1,30.18,ESE,118,2.0,4.0,83,0.00,,,0.00,Wunderground v.1.15,2013-04-16 23:55:00,
2013-04-16 20:05:00,68.1,62.7,30.18,SE,136,3.0,3.0,83,0.00,,,0.00,Wunderground v.1.15,2013-04-17 00:05:00,
2013-04-16 20:15:00,67.6,62.6,30.18,SE,135,2.0,4.0,84,0.00,,,0.00,Wunderground v.1.15,2013-04-17 00:15:00,
2013-04-16 20:20:00,67.5,62.5,30.19,ESE,115,3.0,5.0,84,0.00,,,0.00,Wunderground v.1.15,2013-04-17 00:20:00,
2013-04-16 20:30:00,67.2,62.2,30.19,SE,131,3.0,3.0,84,0.00,,,0.00,Wunderground v.1.15,2013-04-17 00:30:00,
2013-04-16 20:35:00,67.0,62.0,30.19,SE,131,1.0,3.0,84,0.00,,,0.00,Wunderground v.1.15,2013-04-17 00:35:00,
2013-04-16 20:45:00,66.8,61.8,30.19,SE,131,1.0,2.0,84,0.00,,,0.00,Wunderground v.1.15,2013-04-17 00:45:00,
2013-04-16 20:55:00,66.5,61.8,30.19,SE,128,2.0,3.0,85,0.00,,,0.00,Wunderground v.1.15,2013-04-17 00:55:00,
2013-04-16 21:05:00,66.1,61.8,30.20,ESE,103,2.0,3.0,86,0.00,,,0.00,Wunderground v.1.15,2013-04-17 01:05:00,
2013-04-16 21:15:00,65.6,61.6,30.20,ESE,106,1.0,1.0,87,0.00,,,0.00,Wunderground v.1.15,2013-04-17 01:15:00,
2013-04-16 21:25:00,65.3,61.3,30.20,ESE,106,0.0,1.0,87,0.00,,,0.00,Wunderground v.1.15,2013-04-17 01:25:00,
2013-04-16 21:30:00,65.3,61.3,30.20,ESE,106,0.0,0.0,87,0.00,,,0.00,Wunderground v.1.15,2013-04-17 01:30:00,
2013-04-16 21:40:00,65.3,61.3,30.20,ESE,106,1.0,1.0,87,0.00,,,0.00,Wunderground v.1.15,2013-04-17 01:40:00,
2013-04-16 21:45:00,64.9,61.3,30.20,ESE,106,0.0,1.0,88,0.00,,,0.00,Wunderground v.1.15,2013-04-17 01:45:00,
2013-04-16 21:55:00,64.5,61.2,30.21,ESE,106,0.0,0.0,89,0.00,,,0.00,Wunderground v.1.15,2013-04-17 01:55:00,
2013-04-16 22:00:00,64.5,61.2,30.21,ESE,106,0.0,0.0,89,0.00,,,0.00,Wunderground v.1.15,2013-04-17 02:00:00,
2013-04-16 22:10:00,64.5,61.2,30.20,ESE,106,0.0,0.0,89,0.00,,,0.00,Wunderground v.1.15,2013-04-17 02:10:00,
2013-04-16 22:15:00,64.5,61.2,30.21,ESE,121,0.0,0.0,89,0.00,,,0.00,Wunderground v.1.15,2013-04-17 02:15:00,
2013-04-16 22:25:00,64.5,61.2,30.21,ESE,121,0.0,0.0,89,0.00,,,0.00,Wunderground v.1.15,2013-04-17 02:25:00,
2013-04-16 22:30:00,64.3,61.0,30.21,ESE,121,0.0,0.0,89,0.00,,,0.00,Wunderground v.1.15,2013-04-17 02:30:00,
2013-04-16 22:40:00,63.4,60.7,30.20,ESE,121,0.0,0.0,91,0.00,,,0.00,Wunderground v.1.15,2013-04-17 02:40:00,
2013-04-16 22:50:00,63.0,60.6,30.20,ESE,121,0.0,0.0,92,0.00,,,0.00,Wunderground v.1.15,2013-04-17 02:50:00,
2013-04-16 22:55:00,63.0,60.6,30.20,ESE,121,0.0,0.0,92,0.00,,,0.00,Wunderground v.1.15,2013-04-17 02:55:00,
2013-04-16 23:05:00,62.7,60.6,30.20,ESE,121,0.0,0.0,93,0.00,,,0.00,Wunderground v.1.15,2013-04-17 03:05:00,
2013-04-16 23:10:00,62.6,60.5,30.20,ESE,121,0.0,0.0,93,0.00,,,0.00,Wunderground v.1.15,2013-04-17 03:10:00,
2013-04-16 23:20:00,62.5,60.4,30.20,ESE,121,0.0,0.0,93,0.00,,,0.00,Wunderground v.1.15,2013-04-17 03:20:00,
2013-04-16 23:25:00,62.1,60.1,30.20,ESE,121,0.0,0.0,93,0.00,,,0.00,Wunderground v.1.15,2013-04-17 03:25:00,
2013-04-16 23:35:00,62.4,60.7,30.20,ESE,121,0.0,0.0,94,0.00,,,0.00,Wunderground v.1.15,2013-04-17 03:35:00,
2013-04-16 23:45:00,61.8,60.1,30.19,ESE,121,0.0,0.0,94,0.00,,,0.00,Wunderground v.1.15,2013-04-17 03:45:00,
2013-04-16 23:55:00,61.8,60.1,30.19,ESE,121,0.0,0.0,94,0.00,,,0.00,Wunderground v.1.15,2013-04-17 03:55:00,